SL-16 DEB, 42239

Orbit data source: Space-Track

SL-16 DEB, 42239 is space debris in LEO originally from a launch on Fri, 26 Mar 1993 UTC launched from the Tyuratam Missile And Space Complex (TTMTR). Debris objects in space refer to the collection of defunct objects orbiting the Earth. Examples of debris include non-operational satellites, rocket bodies, and fragments generated from explosions, collisions, or faulty payload assembly.

Loading next visibility...
Identifier
42239, 1993-016CT
Orbit
LEO
Country
Flag of CISCIS
Related business
Manufacturer
Unknown
Mission
Spacecraft
Bus & Motor
Unknown
Mass
Unknown
Launch date (UTC)
1993-03-26 (33 years ago)
Launch vehicle
Unknown
Launch site
Tyuratam Missile And Space Complex (TTMTR)
Object type
Payload
Rocket body
Debris
Shape & HBR
Unknown shape, 0.1 m
Radar Cross Section
Small (<0.1 m²)

Expand to show TLE details & history
Last TLE update: 2 days ago

TLE from 2 days ago
0 SL-16 DEB
1 42239U 93016CT  26254.04545238  .00007347  00000-0  18522-2 0  9990
2 42239  71.1185  28.5054 0079484  89.0668 271.9579 14.49486751946950
Epoch: 2026-09-11T01:05Z
TLE epoch observation values (Epoch: 2026-09-11T01:05:27.085Z)
Latitude
-0.00007°
Longitude
22.06808°
Altitude
728.291 km
Speed
7.492 km/s
True Right ascension
01h 54m 01s
True Declination
0° 00' 00"
Sunlit
Object was in full shadow at epoch
Visualization orbit readout
Latitude
Unknown
Longitude
Unknown
Altitude
Unknown
Speed
Unknown
Apparent Right ascension
Unknown
Apparent Declination
Unknown
Sunlit
N/A
Visualization observer readout
Local Sidereal Time
07:40:22
Azimuth
Unknown
Elevation
Unknown
Doppler factor
Unknown
Orbital elements
Apogee altitude
781.665 km
Perigee altitude
668.744 km
Semi-major axis
7,103.341 km
Eccentricity
0.00795
Inclination
71.1185°
RAAN
28.5054°
Arg. of periapsis
89.0668°
True anomaly
271.04734°
Mean anomaly
271.9579°
Eccentric anomaly
271.50265°
Mean motion
3.62534 °/min
Orbital period
99.3 mins
BSTAR
0.0018522
Loading maneuver chart data...
Computing Atmospheric mass density...
Loading historical data...
Loading historical data...
Loading historical data...
Loading historical data...
Loading historical data...
Loading historical data...
Loading historical data...

Documentation

Showing up to 5 results
|